| time (UTC) | temp C | wind direction | speed KPH | gust KPH | rain 1hr cm | rain 24hr cm | rain mn cm | humidity % | barometer mb |
| 20260508163045 | 12 | 24 | 11.3 | 17.7 | 0.00 | 3.20 | 0.00 | 80 | 1001.9 |
| 20260508161545 | 12 | 277 | 1.6 | 12.9 | 0.00 | 3.20 | 0.00 | 84 | 1001.7 |
| 20260508160043 | 11 | 293 | 8.0 | 16.1 | 0.00 | 3.20 | 0.00 | 88 | 1001.7 |
| 20260508154552 | 10 | 37 | 8.0 | 17.7 | 0.00 | 3.20 | 0.00 | 90 | 1002.1 |
| 20260508153039 | 10 | 339 | 6.4 | 17.7 | 0.00 | 3.20 | 0.00 | 90 | 1002.2 |
| 20260508151538 | 10 | 347 | 8.0 | 19.3 | 0.00 | 3.20 | 0.00 | 91 | 1002.2 |
| 20260508150043 | 10 | 328 | 8.0 | 22.5 | 0.00 | 3.20 | 0.00 | 92 | 1002.1 |
| 20260508144543 | 10 | 325 | 8.0 | 19.3 | 0.00 | 3.20 | 0.00 | 94 | 1002.1 |
| 20260508143042 | 10 | 12 | 6.4 | 25.7 | 0.00 | 3.20 | 0.00 | 96 | 1002.0 |
| 20260508141548 | 10 | 345 | 11.3 | 25.7 | 0.00 | 3.20 | 0.00 | 98 | 1002.2 |
| 20260508140040 | 9 | 331 | 12.9 | 24.1 | 0.00 | 3.20 | 0.00 | 99 | 1002.2 |
| 20260508134556 | 9 | 355 | 6.4 | 16.1 | 0.00 | 3.20 | 0.00 | 100 | 1002.2 |
| 20260508133041 | 8 | 321 | 9.7 | 17.7 | 0.00 | 3.20 | 0.00 | 100 | 1002.5 |
| 20260508131542 | 8 | 8 | 8.0 | 14.5 | 0.00 | 3.20 | 0.00 | 100 | 1002.4 |
| 20260508130043 | 7 | 353 | 6.4 | 14.5 | 0.00 | 3.20 | 0.00 | 100 | 1002.5 |
| 20260508124539 | 7 | 20 | 9.7 | 17.7 | 0.00 | 3.23 | 0.00 | 100 | 1002.3 |
| 20260508123044 | 7 | 340 | 11.3 | 19.3 | 0.00 | 3.23 | 0.00 | 100 | 1002.3 |
| 20260508121545 | 7 | 360 | 6.4 | 20.9 | 0.00 | 3.23 | 0.00 | 100 | 1002.2 |
| 20260508120053 | 7 | 12 | 11.3 | 20.9 | 0.00 | 3.23 | 0.00 | 100 | 1001.9 |
| 20260508114539 | 7 | 8 | 11.3 | 19.3 | 0.00 | 3.25 | 0.00 | 100 | 1001.9 |
| 20260508113039 | 7 | 21 | 6.4 | 19.3 | 0.00 | 3.25 | 0.00 | 100 | 1002.4 |
| 20260508111555 | 7 | 349 | 11.3 | 20.9 | 0.00 | 3.25 | 0.00 | 100 | 1002.4 |
| 20260508110057 | 7 | 343 | 11.3 | 19.3 | 0.00 | 3.25 | 0.00 | 100 | 1002.3 |
| 20260508104543 | 7 | 10 | 6.4 | 16.1 | 0.00 | 3.35 | 0.00 | 100 | 1001.9 |
| 20260508103049 | 7 | 10 | 9.7 | 17.7 | 0.00 | 3.35 | 0.00 | 100 | 1002.2 |
| 20260508101543 | 6 | 22 | 6.4 | 16.1 | 0.00 | 3.35 | 0.00 | 100 | 1002.4 |
| 20260508100045 | 6 | 8 | 3.2 | 11.3 | 0.00 | 3.35 | 0.00 | 100 | 1002.3 |
| 20260508094602 | 6 | 345 | 4.8 | 11.3 | 0.00 | 3.35 | 0.00 | 100 | 1002.3 |
| 20260508093043 | 6 | 353 | 6.4 | 11.3 | 0.00 | 3.35 | 0.00 | 100 | 1002.2 |
| 20260508091543 | 6 | 337 | 8.0 | 14.5 | 0.00 | 3.35 | 0.00 | 100 | 1001.9 |
| 20260508090041 | 6 | 343 | 6.4 | 14.5 | 0.00 | 3.35 | 0.00 | 100 | 1001.6 |
| 20260508084538 | 6 | 319 | 6.4 | 12.9 | 0.00 | 3.35 | 0.00 | 100 | 1001.7 |
| 20260508083055 | 7 | 331 | 4.8 | 11.3 | 0.00 | 3.35 | 0.00 | 100 | 1001.9 |
| 20260508081544 | 7 | 350 | 6.4 | 14.5 | 0.00 | 3.35 | 0.00 | 100 | 1001.8 |
| 20260508080038 | 7 | 331 | 9.7 | 16.1 | 0.00 | 3.35 | 0.00 | 100 | 1001.4 |
| 20260508074539 | 7 | 338 | 8.0 | 17.7 | 0.00 | 3.40 | 0.00 | 100 | 1001.4 |
| 20260508073045 | 7 | 343 | 9.7 | 19.3 | 0.00 | 3.40 | 0.00 | 100 | 1001.2 |
| 20260508071544 | 7 | 347 | 9.7 | 17.7 | 0.00 | 3.40 | 0.00 | 100 | 1001.3 |
| 20260508070040 | 7 | 328 | 8.0 | 14.5 | 0.00 | 3.40 | 0.00 | 100 | 1001.5 |
| 20260508064549 | 7 | 337 | 6.4 | 16.1 | 0.00 | 3.43 | 0.00 | 100 | 1001.5 |
| 20260508063044 | 8 | 307 | 8.0 | 14.5 | 0.00 | 3.43 | 0.00 | 100 | 1001.5 |
| 20260508061544 | 8 | 337 | 8.0 | 16.1 | 0.00 | 3.43 | 0.00 | 100 | 1001.4 |
| 20260508060042 | 8 | 317 | 6.4 | 12.9 | 0.00 | 3.43 | 0.00 | 100 | 1001.8 |
| 20260508054540 | 8 | 324 | 6.4 | 11.3 | 0.00 | 3.43 | 0.00 | 100 | 1001.3 |
| 20260508053038 | 8 | 336 | 4.8 | 9.7 | 0.00 | 3.43 | 0.00 | 100 | 1001.4 |
| 20260508051541 | 8 | 328 | 4.8 | 11.3 | 0.00 | 3.43 | 0.00 | 100 | 1001.4 |
| 20260508050043 | 8 | 334 | 6.4 | 14.5 | 0.00 | 3.43 | 0.00 | 100 | 1001.3 |
| 20260508044543 | 8 | 340 | 6.4 | 16.1 | 0.00 | 3.43 | 0.00 | 100 | 1001.5 |
| 20260508043046 | 8 | 351 | 4.8 | 12.9 | 0.00 | 3.43 | 0.00 | 100 | 1001.6 |
| 20260508041538 | 8 | 340 | 3.2 | 12.9 | 0.00 | 3.43 | 0.00 | 100 | 1001.7 |
| 20260508040041 | 7 | 341 | 6.4 | 16.1 | 0.00 | 3.43 | 0.00 | 100 | 1001.7 |
| 20260508034546 | 6 | 16 | 6.4 | 11.3 | 0.00 | 3.43 | 0.00 | 100 | 1001.5 |
| 20260508033045 | 7 | 312 | 4.8 | 8.0 | 0.00 | 3.43 | 0.00 | 100 | 1001.7 |
| 20260508031544 | 6 | 297 | 4.8 | 9.7 | 0.00 | 3.43 | 0.00 | 100 | 1001.9 |
| 20260508030051 | 6 | 268 | 3.2 | 6.4 | 0.03 | 3.43 | 0.00 | 100 | 1002.1 |
| 20260508024545 | 6 | 263 | 6.4 | 11.3 | 0.03 | 3.43 | 3.43 | 100 | 1002.1 |
| 20260508023049 | 6 | 189 | 3.2 | 6.4 | 0.03 | 3.43 | 3.43 | 100 | 1002.1 |
| 20260508021546 | 6 | 184 | 3.2 | 6.4 | 0.03 | 3.43 | 3.43 | 100 | 1002.2 |
| 20260508020044 | 6 | 176 | 3.2 | 6.4 | 0.00 | 3.40 | 3.40 | 100 | 1002.1 |
| 20260508014550 | 6 | 189 | 3.2 | 8.0 | 0.00 | 3.40 | 3.40 | 100 | 1002.3 |
| 20260508013045 | 6 | 140 | 3.2 | 6.4 | 0.00 | 3.40 | 3.40 | 100 | 1002.3 |
| 20260508011543 | 7 | 128 | 1.6 | 6.4 | 0.00 | 3.40 | 3.40 | 100 | 1002.1 |
| 20260508010045 | 7 | 120 | 3.2 | 6.4 | 0.00 | 3.40 | 3.40 | 100 | 1001.9 |
| 20260508004544 | 7 | 172 | 3.2 | 6.4 | 0.00 | 3.40 | 3.40 | 100 | 1002.2 |
| 20260508003057 | 7 | 0 | 3.2 | 8.0 | 0.00 | 3.40 | 3.40 | 100 | 1002.5 |
| 20260508001545 | 7 | 0 | 0.0 | 4.8 | 0.00 | 3.40 | 3.40 | 100 | 1002.3 |
| 20260508000044 | 7 | 179 | 0.0 | 9.7 | 0.00 | 3.40 | 3.40 | 100 | 1002.3 |
| 20260507234540 | 7 | 235 | 4.8 | 14.5 | 0.00 | 3.40 | 3.40 | 100 | 1002.3 |
| 20260507233038 | 7 | 179 | 4.8 | 14.5 | 0.00 | 3.40 | 3.40 | 100 | 1002.3 |
| 20260507231544 | 7 | 203 | 6.4 | 14.5 | 0.00 | 3.40 | 3.40 | 100 | 1002.0 |
| 20260507230044 | 7 | 172 | 9.7 | 17.7 | 0.00 | 3.40 | 3.40 | 100 | 1002.5 |
| 20260507224600 | 7 | 179 | 4.8 | 16.1 | 0.00 | 3.40 | 3.40 | 100 | 1002.7 |
| 20260507223050 | 7 | 168 | 6.4 | 16.1 | 0.00 | 3.40 | 3.40 | 100 | 1002.5 |
| 20260507221539 | 7 | 161 | 11.3 | 22.5 | 0.00 | 3.40 | 3.40 | 100 | 1002.8 |
| 20260507220038 | 8 | 160 | 9.7 | 25.7 | 0.00 | 3.40 | 3.40 | 100 | 1002.8 |
| 20260507214542 | 8 | 202 | 12.9 | 32.2 | 0.03 | 3.40 | 3.40 | 100 | 1003.0 |
| 20260507213043 | 8 | 167 | 9.7 | 24.1 | 0.03 | 3.40 | 3.40 | 100 | 1003.2 |
| 20260507211554 | 8 | 195 | 14.5 | 25.7 | 0.05 | 3.40 | 3.40 | 100 | 1002.9 |
| 20260507210041 | 8 | 201 | 11.3 | 29.0 | 0.18 | 3.40 | 3.40 | 100 | 1002.8 |
| 20260507204538 | 8 | 144 | 12.9 | 27.4 | 0.25 | 3.38 | 3.38 | 100 | 1002.3 |
| 20260507203044 | 8 | 124 | 12.9 | 22.5 | 0.48 | 3.38 | 3.38 | 100 | 1003.2 |
| 20260507201543 | 8 | 137 | 6.4 | 17.7 | 0.74 | 3.35 | 3.35 | 100 | 1003.7 |
| 20260507200047 | 8 | 151 | 6.4 | 24.1 | 1.02 | 3.23 | 3.23 | 100 | 1003.9 |
| 20260507194541 | 8 | 164 | 9.7 | 22.5 | 1.47 | 3.12 | 3.12 | 100 | 1004.2 |
| 20260507193039 | 8 | 147 | 11.3 | 22.5 | 1.63 | 2.90 | 2.90 | 100 | 1004.9 |
| 20260507191539 | 7 | 145 | 8.0 | 22.5 | 1.75 | 2.62 | 2.62 | 100 | 1005.4 |
| 20260507190045 | 7 | 207 | 11.3 | 32.2 | 1.75 | 2.18 | 2.18 | 100 | 1005.7 |
| 20260507184543 | 7 | 233 | 14.5 | 35.4 | 1.24 | 1.60 | 1.60 | 100 | 1005.6 |
| 20260507183040 | 7 | 157 | 16.1 | 32.2 | 0.94 | 1.24 | 1.24 | 100 | 1005.8 |
| 20260507181542 | 6 | 199 | 16.1 | 33.8 | 0.58 | 0.84 | 0.84 | 99 | 1006.2 |
| 20260507180045 | 7 | 145 | 11.3 | 35.4 | 0.18 | 0.43 | 0.43 | 100 | 1005.9 |
| 20260507174540 | 7 | 112 | 20.9 | 41.8 | 0.08 | 0.33 | 0.33 | 100 | 1005.4 |
| 20260507173044 | 7 | 184 | 16.1 | 38.6 | 0.05 | 0.30 | 0.30 | 100 | 1005.5 |
| 20260507171542 | 8 | 137 | 19.3 | 43.5 | 0.03 | 0.25 | 0.25 | 100 | 1006.1 |
| 20260507170043 | 7 | 162 | 19.3 | 38.6 | 0.03 | 0.25 | 0.25 | 100 | 1006.1 |
| 20260507164541 | 7 | 163 | 19.3 | 38.6 | 0.03 | 0.25 | 0.25 | 100 | 1006.6 |